Danville, IL

7:53 PM CDT on March 22, 2017 (GMT -0500)
Vermilion County

Weather History for KDNV - September, 2012

Change the Weather History Date:

Friday, September 21, 2012

  Actual Average (KCMI) Record (KCMI)
Temperature  
Mean Temperature 56 °F -  
Max Temperature 68 °F 74 °F 97 °F (2010)
Min Temperature 45 °F 48 °F 37 °F (1999)
Degree Days  
Heating Degree Days 8    
Growing Degree Days 6 (Base 50)    
Moisture  
Dew Point 45 °F    
Average Humidity 74    
Maximum Humidity 95    
Minimum Humidity 36    
Precipitation  
Precipitation 0.40 in - - ()
Sea Level Pressure  
Sea Level Pressure 29.86 in    
Wind  
Wind Speed 4 mph (SE)    
Max Wind Speed 17 mph    
Max Gust Speed 21 mph    
Visibility 9 miles    
Events Rain    
Averages and records for this station are not official NWS values.
T = Trace of Precipitation, MM = Missing Value Source: NWS Daily Summary

Daily Weather History Graph

Daily Weather History Graph

Search for Another Location

Airport or City:

Trip Planner

Search our weather history database for the weather conditions in past years. The results will help you decide how hot, cold, wet, or windy it might be!

Date:

Astronomy

Sep. 21, 2012 Rise Set
Actual Time 6:37 AM CDT 6:48 PM CDT
Civil Twilight 6:10 AM CDT 7:15 PM CDT
Nautical Twilight 5:38 AM CDT 7:47 PM CDT
Astronomical Twilight 5:06 AM CDT 8:19 PM CDT
Moon 12:59 PM CDT (9/21) 10:48 PM CDT (9/21)
Length of Visible Light 13h 05m
Length of Day
12h 10m
Waxing Crescent, 37% of the Moon is Illuminated
Sep 21
Waxing Crescent
Sep 22
First Quarter
Sep 29
Full
Oct 8
Last Quarter
Oct 15
New

Hourly Weather History & Observations

Time (CDT) Temp. Windchill Dew Point Humidity Pressure Visibility Wind Dir Wind Speed Gust Speed Precip Events Conditions
12:15 AM 49.8 °F - 41.2 °F 72% 29.95 in 10.0 mi WSW 3.5 mph - N/A   Clear
12:35 AM 47.8 °F - 42.3 °F 81% 29.95 in 10.0 mi SW 4.6 mph - N/A   Clear
12:55 AM 49.3 °F - 42.3 °F 77% 29.95 in 10.0 mi Calm Calm - N/A   Clear
1:15 AM 47.1 °F - 41.9 °F 82% 29.95 in 10.0 mi Calm Calm - N/A   Clear
1:35 AM 48.7 °F - 42.1 °F 78% 29.96 in 10.0 mi Calm Calm - N/A   Clear
1:55 AM 47.3 °F - 41.5 °F 80% 29.96 in 10.0 mi Calm Calm - N/A   Clear
2:15 AM 45.7 °F 44.4 °F 41.5 °F 85% 29.96 in 10.0 mi SSW 3.5 mph - N/A   Clear
2:35 AM 47.3 °F - 41.7 °F 81% 29.95 in 10.0 mi Calm Calm - N/A   Clear
2:55 AM 47.1 °F - 41.9 °F 82% 29.95 in 10.0 mi Calm Calm - N/A   Clear
3:15 AM 46.8 °F - 41.9 °F 83% 29.95 in 10.0 mi SSW 3.5 mph - N/A   Clear
3:35 AM 46.4 °F - 41.0 °F 81% 29.95 in 10.0 mi Calm Calm - N/A   Clear
3:55 AM 47.5 °F - 41.4 °F 79% 29.95 in 10.0 mi Calm Calm - N/A   Clear
4:15 AM 46.8 °F - 41.4 °F 81% 29.94 in 10.0 mi Calm Calm - N/A   Clear
4:35 AM 46.8 °F - 41.4 °F 81% 29.94 in 10.0 mi Calm Calm - N/A   Clear
4:55 AM 45.9 °F 44.6 °F 42.1 °F 87% 29.94 in 10.0 mi South 3.5 mph - N/A   Clear
5:15 AM 46.6 °F - 42.6 °F 86% 29.94 in 10.0 mi South 3.5 mph - N/A   Clear
5:35 AM 46.9 °F - 42.1 °F 83% 29.94 in 10.0 mi SSE 3.5 mph - N/A   Clear
5:55 AM 47.3 °F - 42.6 °F 84% 29.94 in 10.0 mi Calm Calm - N/A   Clear
6:15 AM 47.3 °F - 43.0 °F 85% 29.94 in 10.0 mi Calm Calm - N/A   Clear
6:35 AM 47.3 °F - 43.2 °F 86% 29.95 in 10.0 mi Calm Calm - N/A   Clear
6:55 AM 47.7 °F - 43.0 °F 84% 29.94 in 10.0 mi South 4.6 mph - N/A   Clear
7:15 AM 49.1 °F - 42.8 °F 79% 29.94 in 10.0 mi South 4.6 mph - N/A   Clear
7:35 AM 49.5 °F - 43.9 °F 81% 29.94 in 10.0 mi Calm Calm - N/A   Clear
7:55 AM 50.4 °F - 44.8 °F 81% 29.94 in 10.0 mi Calm Calm - N/A   Clear
8:15 AM 52.0 °F - 44.6 °F 76% 29.93 in 10.0 mi South 3.5 mph - N/A   Clear
8:35 AM 53.8 °F - 45.1 °F 73% 29.94 in 7.0 mi South 3.5 mph - N/A   Clear
8:55 AM 57.0 °F - 44.2 °F 62% 29.95 in 10.0 mi SSW 4.6 mph - N/A   Clear
9:15 AM 58.5 °F - 44.2 °F 59% 29.95 in 10.0 mi Calm Calm - N/A   Clear
9:35 AM 59.9 °F - 43.3 °F 54% 29.95 in 10.0 mi SSW 5.8 mph - N/A   Clear
9:55 AM 60.8 °F - 43.3 °F 53% 29.95 in 10.0 mi SSW 5.8 mph - N/A   Clear
10:15 AM 61.2 °F - 43.0 °F 51% 29.94 in 7.0 mi SSW 6.9 mph - N/A   Clear
10:35 AM 61.0 °F - 42.8 °F 51% 29.94 in 7.0 mi SSW 5.8 mph - N/A Rain Light Rain
10:55 AM 61.3 °F - 42.6 °F 50% 29.93 in 10.0 mi South 5.8 mph - N/A Rain Light Rain
11:15 AM 61.7 °F - 43.0 °F 50% 29.92 in 10.0 mi South 6.9 mph - N/A Rain Light Rain
11:35 AM 62.1 °F - 43.2 °F 50% 29.91 in 7.0 mi South 6.9 mph - N/A Rain Light Rain
11:55 AM 62.2 °F - 43.9 °F 51% 29.90 in 10.0 mi South 8.1 mph - N/A   Clear
12:15 PM 63.3 °F - 43.5 °F 48% 29.89 in 10.0 mi South 8.1 mph - N/A   Clear
12:35 PM 64.6 °F - 43.7 °F 47% 29.87 in 10.0 mi South 5.8 mph - N/A   Clear
12:55 PM 65.1 °F - 42.3 °F 43% 29.86 in 7.0 mi SSE 5.8 mph - N/A   Clear
1:15 PM 65.3 °F - 42.6 °F 44% 29.85 in 10.0 mi SSE 5.8 mph - N/A   Clear
1:35 PM 65.7 °F - 41.9 °F 42% 29.83 in 7.0 mi SSE 5.8 mph - N/A   Clear
1:55 PM 65.1 °F - 41.9 °F 43% 29.82 in 7.0 mi SSE 6.9 mph - N/A   Scattered Clouds
2:15 PM 66.2 °F - 42.1 °F 41% 29.80 in 10.0 mi ESE 6.9 mph - N/A   Scattered Clouds
2:35 PM 68.0 °F - 41.9 °F 39% 29.77 in 10.0 mi ESE 9.2 mph - N/A   Clear
2:55 PM 68.2 °F - 39.9 °F 36% 29.76 in 10.0 mi ESE 8.1 mph - N/A   Scattered Clouds
3:15 PM 67.6 °F - 41.7 °F 39% 29.73 in 10.0 mi ESE 10.4 mph - N/A   Scattered Clouds
3:35 PM 63.9 °F - 45.7 °F 52% 29.73 in 7.0 mi SE 12.7 mph - 0.01 in Rain Rain
3:55 PM 59.5 °F - 49.1 °F 68% 29.72 in 10.0 mi ESE 4.6 mph - 0.02 in   Overcast
4:15 PM 59.9 °F - 50.0 °F 70% 29.72 in 10.0 mi NNE 3.5 mph - N/A Rain Light Rain
4:35 PM 56.7 °F - 50.5 °F 80% 29.76 in 3.0 mi North 5.8 mph 18.4 mph 0.12 in Rain Heavy Rain
4:55 PM 54.9 °F - 51.3 °F 88% 29.74 in 7.0 mi East 4.6 mph - 0.20 in Rain Light Rain
5:15 PM 54.5 °F - 51.3 °F 89% 29.74 in 10.0 mi ENE 10.4 mph - N/A Rain Light Rain
5:35 PM 54.5 °F - 51.1 °F 88% 29.75 in 2.0 mi ENE 9.2 mph - 0.17 in Rain Light Rain
5:55 PM 54.7 °F - 50.9 °F 87% 29.74 in 10.0 mi ENE 8.1 mph - 0.17 in Rain Light Rain
6:15 PM 54.5 °F - 50.9 °F 88% 29.73 in 10.0 mi NE 9.2 mph - N/A Rain Light Rain
6:35 PM 54.3 °F - 51.3 °F 89% 29.74 in 10.0 mi NE 11.5 mph - N/A Rain Rain
6:55 PM 54.0 °F - 50.9 °F 89% 29.73 in 10.0 mi ENE 9.2 mph - 0.01 in   Scattered Clouds
7:15 PM 53.8 °F - 50.9 °F 90% 29.73 in 10.0 mi ENE 9.2 mph - N/A   Scattered Clouds
7:35 PM 53.6 °F - 50.9 °F 91% 29.73 in 10.0 mi ENE 6.9 mph - N/A   Scattered Clouds
7:55 PM 53.6 °F - 50.9 °F 91% 29.73 in 10.0 mi ENE 6.9 mph - N/A   Mostly Cloudy
8:15 PM 53.6 °F - 51.1 °F 91% 29.74 in 10.0 mi East 3.5 mph - N/A   Mostly Cloudy
8:35 PM 53.6 °F - 51.1 °F 91% 29.73 in 10.0 mi NE 4.6 mph - N/A   Mostly Cloudy
8:55 PM 53.6 °F - 51.4 °F 92% 29.75 in 10.0 mi North 17.3 mph 20.7 mph N/A   Overcast
9:15 PM 53.2 °F - 51.3 °F 93% 29.73 in 10.0 mi NNE 8.1 mph - N/A Rain Light Rain
9:35 PM 53.1 °F - 50.9 °F 92% 29.74 in 10.0 mi NNE 6.9 mph - N/A   Overcast
9:55 PM 52.7 °F - 50.4 °F 92% 29.75 in 10.0 mi North 5.8 mph - N/A Rain Light Rain
10:15 PM 51.3 °F - 49.3 °F 93% 29.77 in 10.0 mi North 5.8 mph - N/A   Scattered Clouds
10:35 PM 50.4 °F - 48.7 °F 94% 29.78 in 10.0 mi North 3.5 mph - N/A   Clear
10:55 PM 48.9 °F - 47.3 °F 94% 29.79 in 10.0 mi North 5.8 mph - N/A   Clear
11:15 PM 49.1 °F - 47.7 °F 95% 29.79 in 10.0 mi North 5.8 mph - N/A   Clear
11:35 PM 49.3 °F - 47.8 °F 95% 29.80 in 10.0 mi NNW 4.6 mph - N/A   Clear
11:55 PM 48.7 °F - 47.3 °F 95% 29.80 in 10.0 mi NNW 8.1 mph - N/A   Clear